Вернуться в каталог

FENGYUN 1C DEB

АктивенPO
NORAD 31978·DEBRIS·🇨🇳 China

Запущен May 10, 1999 с Taiyuan Satellite Launch Center

Loading…

Ближайшие Пролёты (ближайшие 24 часа)

TLE

СвежийSource: Space-Track

Эпоха: Sep 12, 2026, 07:05 UTC

1 31978U 99025CPF 26255.29525045  .00000316  00000-0  34954-3 0  9993
2 31978  98.4033  18.1515 0263236  46.0680 316.1866 13.63770579953189

Отслеживайте FENGYUN 1C DEB в реальном времени с AllMySat

Download on the App Store